GPS BIIF-1 (PRN 25) (36585 NORAD) Tracking and Keplerian Element Data

This shows tracking and keplerian element data for the satellite.

Feedback or suggestion? Click here.




ElementValue
Catalog36585
NameGPS BIIF-1 (PRN 25)
Epoch Orbit11400
Epoch Day354.12428522
Epoch Year2025
RAAN215.7761
Inclination54.299
Eccentricity0.0126415
Argument of Perigee65.1663
Mean Anonmoly50.4936
Mean Motion2.00553637
Decay Rate8E-07
L11 36585U 10022A 25354.12428522 .00000080 00000+0 00000+0 0 9993
L22 36585 54.2990 215.7761 0126415 65.1663 50.4936 2.00553637114007



Live tracking and technical data element details for GPS BIIF-1 (PRN 25) (NORAD 36585). GPS BIIF-1 (PRN 25) can be tracked NOW for your location showing map with azimuth and elevation plus other details from your city location.







IsCatalogInMostPopularTable: catalog: 36585, numindb: 532
Update: records affected: 1



GetName: 36585 GPS BIIF-1 (PRN 25)

Hit Count: updated at: Fri, 16 Jan 2026 03:27:18 GMT